New York, NY

7:52 PM EDT on October 21, 2017 (GMT -0400)
La Guardia

Weather History for KLGA - January, 2015

Change the Weather History Date:

Saturday, January 3, 2015

  Actual Average Record
Temperature  
Mean Temperature 36 °F 34 °F  
Max Temperature 41 °F 40 °F 63 °F (2000)
Min Temperature 31 °F 28 °F 10 °F (2014)
Degree Days  
Heating Degree Days 29 31  
Month to date heating degree days 87 93  
Since 1 July heating degree days 1590 1699  
Cooling Degree Days 0 0  
Month to date cooling degree days 0 0  
Year to date cooling degree days 0 0  
Moisture  
Dew Point 29 °F    
Average Humidity 75    
Maximum Humidity 100    
Minimum Humidity 50    
Precipitation  
Precipitation 0.67 in 0.11 in 2.53 in (1999)
Month to date precipitation 0.67 0.31  
Year to date precipitation 0.67 0.31  
Snow  
Snow T in 0.20 in 4.50 in (2014)
Month to date snowfall T 0.7  
Since 1 July snowfall 1.7 6.2  
Snow Depth 0.00 in    
Sea Level Pressure  
Sea Level Pressure 30.44 in    
Wind  
Wind Speed 10 mph (ENE)    
Max Wind Speed 16 mph    
Max Gust Speed 20 mph    
Visibility 4 miles    
Events Rain , Snow    
T = Trace of Precipitation, MM = Missing Value Source: NWS Daily Summary

Daily Weather History Graph

Daily Weather History Graph

Search for Another Location

Airport or City:

Trip Planner

Search our weather history database for the weather conditions in past years. The results will help you decide how hot, cold, wet, or windy it might be!

Date:

Astronomy

Jan. 03, 2015 Rise Set
Actual Time 7:19 AM EST 4:40 PM EST
Civil Twilight 6:49 AM EST 5:10 PM EST
Nautical Twilight 6:14 AM EST 5:45 PM EST
Astronomical Twilight 5:41 AM EST 6:18 PM EST
Moon 3:46 PM EST (1/3) 5:39 AM EST (1/3)
Length of Visible Light 10h 21m
Length of Day
9h 20m
Waxing Gibbous, 98% of the Moon is Illuminated
Jan 3
Waxing Gibbous
Jan 4
Full
Jan 13
Last Quarter
Jan 20
New
Jan 26
First Quarter

Hourly Weather History & Observations

Time (EST) Temp. Windchill Dew Point Humidity Pressure Visibility Wind Dir Wind Speed Gust Speed Precip Events Conditions
12:51 AM 35.1 °F 30.1 °F 19.9 °F 54% 30.47 in 10.0 mi North 5.8 mph - N/A   Scattered Clouds
1:51 AM 34.0 °F 28.8 °F 19.9 °F 56% 30.48 in 10.0 mi NNE 5.8 mph - N/A   Mostly Cloudy
2:51 AM 34.0 °F 29.8 °F 21.0 °F 59% 30.50 in 10.0 mi NNE 4.6 mph - N/A   Mostly Cloudy
3:51 AM 34.0 °F 29.8 °F 21.0 °F 59% 30.53 in 10.0 mi NE 4.6 mph - N/A   Mostly Cloudy
4:51 AM 33.1 °F 26.9 °F 21.9 °F 64% 30.54 in 10.0 mi East 6.9 mph - N/A   Mostly Cloudy
5:51 AM 32.0 °F 25.6 °F 21.9 °F 66% 30.56 in 10.0 mi East 6.9 mph - N/A   Scattered Clouds
6:51 AM 32.0 °F 24.8 °F 21.0 °F 64% 30.58 in 10.0 mi East 8.1 mph - N/A   Scattered Clouds
7:51 AM 32.0 °F 23.6 °F 21.0 °F 64% 30.58 in 10.0 mi East 10.4 mph - N/A   Overcast
8:51 AM 33.1 °F 24.4 °F 19.9 °F 59% 30.59 in 10.0 mi East 11.5 mph - N/A   Mostly Cloudy
9:51 AM 35.1 °F 27.9 °F 19.0 °F 52% 30.60 in 10.0 mi East 9.2 mph - N/A   Overcast
10:51 AM 37.0 °F 28.9 °F 21.0 °F 52% 30.56 in 10.0 mi East 12.7 mph - N/A   Overcast
11:51 AM 39.0 °F 31.8 °F 23.0 °F 53% 30.53 in 10.0 mi East 11.5 mph - N/A   Overcast
12:27 PM 37.4 °F 29.3 °F 26.6 °F 65% 30.51 in 2.5 mi East 12.7 mph - 0.00 in Snow Light Snow
12:39 PM 35.6 °F 27.1 °F 28.4 °F 75% 30.51 in 0.8 mi East 12.7 mph - 0.01 in Snow Light Snow
12:51 PM 35.1 °F 27.4 °F 30.0 °F 82% 30.50 in 1.0 mi East 10.4 mph - 0.01 in Snow Light Snow
1:12 PM 35.6 °F 28.0 °F 30.2 °F 81% 30.51 in 5.0 mi ENE 10.4 mph - 0.00 in   Overcast
1:32 PM 33.8 °F 26.4 °F 30.2 °F 87% 30.52 in 1.5 mi NNE 9.2 mph - 0.01 in Snow Light Snow
1:51 PM 34.0 °F 25.5 °F 30.9 °F 89% 30.51 in 1.5 mi NE 11.5 mph - 0.02 in Snow Light Snow
2:04 PM 33.8 °F 25.3 °F 30.2 °F 87% 30.49 in 1.2 mi ENE 11.5 mph - 0.01 in Snow Light Snow
2:11 PM 33.8 °F 25.3 °F 30.2 °F 87% 30.48 in 1.5 mi ENE 11.5 mph - 0.01 in Snow Light Snow
2:30 PM 33.8 °F 25.3 °F 30.2 °F 87% 30.46 in 0.8 mi ENE 11.5 mph - 0.03 in Snow Light Snow
2:41 PM 33.8 °F 27.0 °F 30.2 °F 87% 30.46 in 0.8 mi ENE 8.1 mph - 0.05 in Snow Light Snow
2:47 PM 33.8 °F 27.0 °F 32.0 °F 93% 30.46 in 1.0 mi East 8.1 mph - 0.05 in Snow Light Snow
2:51 PM 33.1 °F 26.1 °F 32.0 °F 96% 30.46 in 1.0 mi East 8.1 mph - 0.05 in Snow Light Snow
3:49 PM 33.8 °F 26.4 °F 33.8 °F 100% 30.45 in 1.0 mi NE 9.2 mph - 0.08 in Rain Light Rain
3:51 PM 34.0 °F 26.0 °F 33.1 °F 96% 30.45 in 1.0 mi NE 10.4 mph - 0.08 in Rain Light Rain
4:33 PM 35.6 °F 27.5 °F 33.8 °F 93% 30.42 in 1.0 mi NE 11.5 mph - 0.04 in Rain Light Rain
4:51 PM 36.0 °F 28.5 °F 34.0 °F 93% 30.41 in 1.0 mi NE 10.4 mph - 0.05 in Rain Light Rain
5:51 PM 36.0 °F 29.6 °F 34.0 °F 93% 30.38 in 1.0 mi ENE 8.1 mph - 0.11 in Rain Light Rain
5:53 PM 35.6 °F 29.2 °F 33.8 °F 93% 30.38 in 2.0 mi ENE 8.1 mph - 0.00 in Rain Light Rain
6:51 PM 37.0 °F 29.8 °F 35.1 °F 93% 30.36 in 2.0 mi NE 10.4 mph - 0.06 in Rain Rain
7:51 PM 37.9 °F 30.5 °F 36.0 °F 93% 30.31 in 2.0 mi NE 11.5 mph - 0.09 in Rain Light Rain
8:10 PM 37.4 °F 28.9 °F 37.4 °F 100% 30.28 in 2.0 mi NE 13.8 mph - 0.01 in Rain Light Rain
8:51 PM 37.9 °F 30.5 °F 37.0 °F 97% 30.24 in 2.0 mi NE 11.5 mph - 0.03 in Rain Rain
9:51 PM 39.0 °F 31.4 °F 37.9 °F 96% 30.19 in 2.0 mi NE 12.7 mph - 0.07 in Rain Light Rain
9:59 PM 39.2 °F 31.6 °F 37.4 °F 93% 30.18 in 2.0 mi NE 12.7 mph - 0.01 in Rain Light Rain
10:25 PM 39.2 °F 31.6 °F 39.2 °F 100% 30.15 in 2.0 mi NE 12.7 mph - 0.03 in Rain Light Rain
10:51 PM 39.9 °F 32.1 °F 39.0 °F 97% 30.14 in 2.0 mi NE 13.8 mph - 0.05 in Rain Light Rain
11:51 PM 41.0 °F 33.9 °F 39.9 °F 96% 30.09 in 2.0 mi NE 12.7 mph - 0.04 in Rain Light Rain